Terug naar catalogus

COSMOS 1867 COOLANT

ActiefLEO
NORAD 39662·DEBRIS·🇷🇺 Russia

Gelanceerd Jul 10, 1987 vanaf Baikonur Cosmodrome

Loading…

Volgende Passages (komende 24 uur)

TLE

VersSource: Space-Track

Epoch: Sep 14, 2026, 07:40 UTC

1 39662U 87060Z   26257.32011912  .00000208  00000-0  10892-3 0  9991
2 39662  65.0068 114.6388 0017790 281.5316  78.3773 14.34693695648287

Volg COSMOS 1867 COOLANT in realtime met AllMySat

Download on the App Store